sat.trackr.live / text

‹ back to catalog

STARLINK-35832

NORAD 66495 · 2025-263L

PAYLOAD ACTIVE UNKNOWN

§ Identity

Operator
Country
US
Launch date
2025-11-15
Launch site
AFETR
Launch vehicle
Mass (kg)
RCS (m²)

Purposes: comms

External: N2YO · Heavens-Above · Gunter

§ Orbital elements

Epoch: 2026-05-25T02:01:55.010208Z

Period
94.27 min
Inclination
42.9990°
Eccentricity
0.0000243
Mean motion
15.27579179 rev/d
Perigee alt
482.9 km
Apogee alt
483.2 km
Semi-major
6,861.2 km
B*
9.9697e-4
RAAN
279.1649°
Arg perigee
347.6720°
Mean anomaly
12.4126°
Rev number
3,058

§ Raw data

STARLINK-358321 66495U 25263L   26145.08466447  .00027273  00000+0  99697-3 0  99982 66495  42.9990 279.1649 0000243 347.6720  12.4126 15.27579179 30586

JSON: /api/v1/satellites/66495 · /tle

For live sub-satellite position, see the globe view (requires WebGL).

§ Visibility from observer

Set your observer location to see the next 7 days of passes ≥ 10°. The values pass through the URL so the page stays shareable.

No JS? Fill the form by hand. The geolocation button needs JavaScript.